Torna al catalogo

ATLAS 5 CENTAUR DEB

LostHEO
NORAD 47343·DEBRIS·🇺🇸 United States

Lanciato Oct 17, 2018 da Cape Canaveral Space Force Station

Loading…

Prossimi Passaggi (prossime 24 ore)

TLE

ObsoletoSource: Space-Track

Epoca: May 10, 2026, 11:14 UTC

1 47343U 18079EQ  26130.46863796 -.00000097  00000-0  00000-0 0  9994
2 47343  12.6879  49.8387 4092391 323.0382  14.7910  1.96310579 35016

Traccia ATLAS 5 CENTAUR DEB in tempo reale con AllMySat

Download on the App Store